Location: Earls Croome
(52.0667°N, 2.2000°W)
Time: 18:09:26
(UTC+00:00)

Lacrosse 5 - Pass Details

Date: 17 November 2019
Orbit: 715 x 724 km, 57.0° (Epoch: 04 December)

Event Time Altitude Azimuth Distance (km) Brightness Sun altitude
Exits shadow 04:42:39 78° 189° (S) 738 1.8 -25.6°
Maximum altitude 04:42:53 81° 148° (SSE) 732 1.8 -25.6°
Drops below altitude 10° 04:47:58 10° 62° (ENE) 2,205 5.2 -24.8°
Sets 04:50:21 0° 62° (ENE) 3,126 6.2 -24.5°
